This is the latest recevied weather packets stored in our database for station/object W2GRK-15. If no packets are shown the sender has not sent any weather packets the latest 10 day(s).
| Time | Temp. | Humidity | Pressure | Rain* | Wind** | Luminosity | Snow |
|---|---|---|---|---|---|---|---|
| 1777153577 | 5.56° C | 98% | 1017.1 hPa | 2.79 mm | - | 13 W/m² | - |
| 1777153351 | 5.56° C | 98% | 1016.3 hPa | 2.79 mm | - | 20 W/m² | - |
| 1777153287 | 5.56° C | 98% | 1016.5 hPa | 2.79 mm | - | 20 W/m² | - |
| 1777152916 | 6.11° C | 97% | 1016.3 hPa | 2.54 mm | - | 19 W/m² | - |
| 1777152450 | 5.56° C | 97% | 1016.4 hPa | 2.29 mm | - | 29 W/m² | - |
| 1777152321 | 5.56° C | 97% | 1016.5 hPa | 2.29 mm | - | 21 W/m² | - |
| 1777151967 | 5.56° C | 97% | 1016.5 hPa | 2.03 mm | - | 22 W/m² | - |
| 1777151588 | 5.56° C | 97% | 1016.8 hPa | 1.78 mm | - | 25 W/m² | - |
| 1777151483 | 5.56° C | 97% | 1016.6 hPa | 1.78 mm | - | 29 W/m² | - |
| 1777151371 | 5.56° C | 97% | 1016.6 hPa | 1.78 mm | - | 33 W/m² | - |
| 1777150710 | 5.56° C | 97% | 1016.8 hPa | 1.78 mm | - | 41 W/m² | - |
| 1777150582 | 5.56° C | 97% | 1016.7 hPa | 1.78 mm | - | 57 W/m² | - |
| 1777150276 | 5.56° C | 97% | 1016.7 hPa | 1.78 mm | - | 72 W/m² | - |
| 1777150228 | 5.56° C | 97% | 1016.7 hPa | 1.78 mm | - | 74 W/m² | - |
| 1777150099 | 5.56° C | 97% | 1016.6 hPa | 1.78 mm | - | 82 W/m² | - |
| 1777149986 | 5.56° C | 97% | 1016.9 hPa | 1.78 mm | - | 75 W/m² | - |
| 1777149857 | 5.56° C | 97% | 1016.9 hPa | 1.78 mm | - | 75 W/m² | - |
| 1777149809 | 5.56° C | 97% | 1016.7 hPa | 1.78 mm | - | 76 W/m² | - |
| 1777149149 | 5.56° C | 97% | 1016.9 hPa | 2.54 mm | - | 89 W/m² | - |
| 1777147587 | 5.56° C | 97% | 1017.3 hPa | 2.79 mm | - | 74 W/m² | - |
| 1777147281 | 5.56° C | 97% | 1017.7 hPa | 3.3 mm | - | 70 W/m² | - |
| 1777147217 | 5.56° C | 97% | 1017.6 hPa | 3.3 mm | - | 66 W/m² | - |
| 1777147104 | 5.56° C | 97% | 1017.4 hPa | 3.3 mm | - | 67 W/m² | - |
| 1777146927 | 5.56° C | 97% | 1017.4 hPa | 3.56 mm | - | 81 W/m² | - |
| 1777146749 | 5.56° C | 97% | 1017.4 hPa | 3.81 mm | - | 100 W/m² | - |
* Rain latest hour (hover to see other rain measurements)
** Current wind speed in m/s (hover to see current wind gust speed)